This is the latest recevied weather packets stored in our database for station/object N2ZVN. If no packets are shown the sender has not sent any weather packets the latest 10 day(s).
| Time | Temp. | Humidity | Pressure | Rain* | Wind** | Luminosity | Snow |
|---|---|---|---|---|---|---|---|
| 1777947324 | 16.67° C | 51% | 1003.1 hPa | 0 mm | - | 0 W/m² | - |
| 1777947021 | 16.67° C | 49% | 1003.1 hPa | 0 mm | - | 0 W/m² | - |
| 1777946720 | 16.67° C | 49% | 1003.1 hPa | 0 mm | - | 0 W/m² | - |
| 1777946418 | 16.67° C | 50% | 1003.1 hPa | 0 mm | - | 0 W/m² | - |
| 1777946115 | 16.11° C | 50% | 1003 hPa | 0 mm | - | 0 W/m² | - |
| 1777945812 | 16.11° C | 53% | 1003.3 hPa | 0 mm | - | 0 W/m² | - |
| 1777945509 | 16.11° C | 50% | 1003.1 hPa | 0 mm | - | 0 W/m² | - |
| 1777945206 | 16.11° C | 51% | 1003.2 hPa | 0 mm | - | 0 W/m² | - |
| 1777944903 | 15.56° C | 51% | 1003.3 hPa | 0 mm | - | 0 W/m² | - |
| 1777944600 | 15.56° C | 52% | 1003.4 hPa | 0 mm | - | 0 W/m² | - |
| 1777944298 | 15.56° C | 54% | 1003.2 hPa | 0 mm | - | 0 W/m² | - |
| 1777943995 | 15.56° C | 54% | 1003.2 hPa | 0 mm | - | 0 W/m² | - |
| 1777943691 | 15.56° C | 54% | 1003.2 hPa | 0 mm | - | 0 W/m² | - |
| 1777943388 | 15.56° C | 54% | 1003 hPa | 0 mm | - | 0 W/m² | - |
| 1777943083 | 15.56° C | 54% | 1003.2 hPa | 0 mm | - | 0 W/m² | - |
| 1777942780 | 16.11° C | 51% | 1003.2 hPa | 0 mm | - | 0 W/m² | - |
| 1777942476 | 16.11° C | 50% | 1003 hPa | 0 mm | - | 0 W/m² | - |
| 1777942174 | 16.67° C | 52% | 1003 hPa | 0 mm | - | 0 W/m² | - |
| 1777941871 | 16.67° C | 49% | 1003.3 hPa | 0 mm | - | 0 W/m² | - |
| 1777941568 | 16.67° C | 47% | 1003.1 hPa | 0 mm | - | 0 W/m² | - |
| 1777941265 | 17.22° C | 48% | 1003.1 hPa | 0 mm | - | 0 W/m² | - |
| 1777940961 | 17.78° C | 47% | 1003 hPa | 0 mm | - | 0 W/m² | - |
| 1777940657 | 17.78° C | 45% | 1003.1 hPa | 0 mm | - | 1 W/m² | - |
| 1777940356 | 18.33° C | 42% | 1003 hPa | 0 mm | - | 2 W/m² | - |
| 1777940053 | 18.89° C | 42% | 1003.1 hPa | 0 mm | - | 2 W/m² | - |
* Rain latest hour (hover to see other rain measurements)
** Current wind speed in m/s (hover to see current wind gust speed)